Date String (YYYY-MM-DD hh:mm:ss) UTC,Instrument flags,absolute air pressure of the measurement (hPa),sample flow rate (lpm),inlet stack bypass flow (lpm),air temperature of the measurement (°C),ambient temperature measured by the external sensor (°C),aerosol sample conditioner tube jacket temperature (°C),OPC LED temperature (°C),internal box temperature (°C),relative humidity of the measurement (%),span deviation,mass concentration of particles derived from Lorenz-Mie calculation of OPC scattering (μg/m³),mass concentration of particles derived from Lorenz-Mie calculation of OPC scattering (μg/m³),mass concentration of particles derived from Lorenz-Mie calculation of OPC scattering (μg/m³)
DateTimeUTC,F1_M11,P_M11,Q1_M11,Q2_M11,T1_M11,T2_M11,T3_M11,T4_M11,T5_M11,U1_M11,ZSPAN_M11,X2_M11,X0_M11,X1_M11
2023-06-10 08:00:00,SystemResetWarning,0829.5,5.00,000.00,030.1,028.5,000.0,038.7,031.6,18.8,0000.0,0003.41,0005.94,0002.57
2023-06-10 08:01:00,SystemResetWarning,0829.5,5.00,000.00,030.1,028.5,000.0,038.7,031.6,18.3,0000.0,0003.38,0005.88,0002.57
2023-06-10 08:02:00,SystemResetWarning,0829.5,5.00,000.00,030.1,028.5,000.0,038.7,031.6,18.1,0000.0,0003.38,0006.24,0002.55
2023-06-10 08:03:00,SystemResetWarning,0829.5,4.99,000.00,030.1,028.5,000.0,038.7,031.6,18.1,0000.0,0003.33,0006.82,0002.54
2023-06-10 08:04:00,SystemResetWarning,0829.5,5.00,000.00,030.1,028.5,000.0,038.7,031.6,18.0,0000.0,0003.31,0006.78,0002.53
2023-06-10 08:05:00,SystemResetWarning,0829.5,5.00,000.00,030.1,028.5,000.0,038.7,031.6,18.0,0000.0,0003.32,0006.94,0002.52
2023-06-10 08:06:00,SystemResetWarning,0829.5,5.00,000.00,030.1,028.5,000.0,038.7,031.6,18.1,0000.0,0003.38,0007.39,0002.51
2023-06-10 08:07:00,SystemResetWarning,0829.5,5.01,000.00,030.1,028.5,000.0,038.7,031.6,18.1,0000.0,0003.38,0007.41,0002.52
2023-06-10 08:08:00,SystemResetWarning,0829.5,5.01,000.00,030.1,028.5,000.0,038.7,031.6,18.1,0000.0,0003.39,0007.50,0002.52
2023-06-10 08:09:00,SystemResetWarning,0829.6,5.00,000.00,030.1,028.5,000.0,038.7,031.6,18.1,0000.0,0003.40,0007.71,0002.51
2023-06-10 08:10:00,SystemResetWarning,0829.6,4.99,000.00,030.1,028.4,000.0,038.7,031.6,18.2,0000.0,0003.39,0007.74,0002.50
2023-06-10 08:11:00,SystemResetWarning,0829.6,5.00,000.00,030.1,028.4,000.0,038.7,031.6,18.1,0000.0,0003.33,0008.14,0002.48
2023-06-10 08:12:00,SystemResetWarning,0829.6,5.00,000.00,030.1,028.4,000.0,038.7,031.6,18.2,0000.0,0003.30,0008.06,0002.45
2023-06-10 08:13:00,SystemResetWarning,0829.6,5.00,000.00,030.1,028.4,000.0,038.7,031.6,18.1,0000.0,0003.30,0008.03,0002.45
2023-06-10 08:14:00,SystemResetWarning,0829.6,5.00,000.00,030.1,028.4,000.0,038.7,031.6,18.1,0000.0,0003.32,0008.08,0002.44
2023-06-10 08:15:00,SystemResetWarning,0829.5,5.00,000.00,030.1,028.4,000.0,038.7,031.6,18.2,0000.0,0003.33,0008.14,0002.43
2023-06-10 08:16:00,SystemResetWarning,0829.5,5.00,000.00,030.1,028.4,000.0,038.7,031.6,18.2,0000.0,0003.29,0008.04,0002.40
2023-06-10 08:17:00,SystemResetWarning,0829.5,5.01,000.00,030.1,028.4,000.0,038.7,031.6,18.2,0000.0,0003.23,0007.85,0002.38
2023-06-10 08:18:00,SystemResetWarning,0829.4,5.00,000.00,030.1,028.4,000.0,038.7,031.6,18.2,0000.0,0003.21,0007.82,0002.36
2023-06-10 08:19:00,SystemResetWarning,0829.4,5.00,000.00,030.1,028.4,000.0,038.7,031.6,18.6,0000.0,0003.21,0007.83,0002.35
2023-06-10 08:20:00,SystemResetWarning,0829.4,5.00,000.00,030.1,028.4,000.0,038.7,031.6,18.4,0000.0,0003.21,0007.61,0002.35
2023-06-10 08:21:00,SystemResetWarning,0829.3,4.99,000.00,030.1,028.4,000.0,038.7,031.6,18.3,0000.0,0003.24,0007.79,0002.35
2023-06-10 08:22:00,SystemResetWarning,0829.3,4.99,000.00,030.1,028.4,000.0,038.7,031.6,18.3,0000.0,0003.24,0007.37,0002.36
2023-06-10 08:23:00,SystemResetWarning,0829.3,5.00,000.00,030.1,028.5,000.0,038.7,031.6,18.3,0000.0,0003.26,0007.25,0002.37
2023-06-10 08:24:00,SystemResetWarning,0829.3,5.01,000.00,030.1,028.5,000.0,038.7,031.6,18.3,0000.0,0003.27,0007.29,0002.38
2023-06-10 08:25:00,SystemResetWarning,0829.3,5.01,000.00,030.1,028.5,000.0,038.7,031.6,18.3,0000.0,0003.26,0006.81,0002.38
2023-06-10 08:26:00,SystemResetWarning,0829.3,5.00,000.00,030.1,028.5,000.0,038.7,031.6,18.3,0000.0,0003.24,0006.10,0002.39
2023-06-10 08:27:00,SystemResetWarning,0829.3,4.99,000.00,030.1,028.5,000.0,038.7,031.6,18.3,0000.0,0003.29,0006.29,0002.40
2023-06-10 08:28:00,SystemResetWarning,0829.4,5.00,000.00,030.1,028.5,000.0,038.7,031.6,18.3,0000.0,0003.29,0006.27,0002.40
2023-06-10 08:29:00,SystemResetWarning,0829.4,4.99,000.00,030.1,028.5,000.0,038.7,031.6,18.3,0000.0,0003.26,0005.97,0002.40
2023-06-10 08:30:00,SystemResetWarning,0829.4,4.99,000.00,030.1,028.5,000.0,038.7,031.6,18.3,0000.0,0003.26,0006.00,0002.39
2023-06-10 08:31:00,SystemResetWarning,0829.3,5.00,000.00,030.1,028.5,000.0,038.7,031.6,18.5,0000.0,0003.27,0006.11,0002.38
2023-06-10 08:32:00,SystemResetWarning,0829.3,5.00,000.00,030.1,028.5,000.0,038.7,031.6,18.2,0000.0,0003.26,0005.88,0002.37
2023-06-10 08:33:00,SystemResetWarning,0829.2,5.01,000.00,030.1,028.5,000.0,038.7,031.6,18.3,0000.0,0003.26,0005.72,0002.38
2023-06-10 08:34:00,SystemResetWarning,0829.2,5.00,000.00,030.1,028.5,000.0,038.7,031.6,18.3,0000.0,0003.26,0005.74,0002.38
2023-06-10 08:35:00,SystemResetWarning,0829.2,5.00,000.00,030.1,028.5,000.0,038.7,031.6,18.3,0000.0,0003.27,0005.81,0002.37
2023-06-10 08:36:00,SystemResetWarning,0829.2,5.01,000.00,030.1,028.5,000.0,038.7,031.6,18.4,0000.0,0003.27,0005.95,0002.37
2023-06-10 08:37:00,SystemResetWarning,0829.2,5.00,000.00,030.1,028.5,000.0,038.7,031.6,18.5,0000.0,0003.30,0006.07,0002.38
2023-06-10 08:38:00,SystemResetWarning,0829.3,5.00,000.00,030.2,028.5,000.0,038.7,031.6,18.6,0000.0,0003.32,0006.10,0002.38
2023-06-10 08:39:00,SystemResetWarning,0829.3,5.00,000.00,030.1,028.5,000.0,038.7,031.6,19.0,0000.0,0003.35,0006.16,0002.41
2023-06-10 08:40:00,SystemResetWarning,0829.3,4.99,000.00,030.1,028.5,000.0,038.7,031.6,18.8,0000.0,0003.36,0006.13,0002.44
2023-06-10 08:41:00,SystemResetWarning,0829.3,4.99,000.00,030.1,028.5,000.0,038.7,031.6,19.4,0000.0,0003.37,0006.52,0002.44
2023-06-10 08:42:00,SystemResetWarning,0829.4,5.00,000.00,030.2,028.5,000.0,038.7,031.7,19.7,0000.0,0003.41,0007.36,0002.46
2023-06-10 08:43:00,SystemResetWarning,0829.4,5.01,000.00,030.2,028.5,000.0,038.7,031.7,20.7,0000.0,0003.42,0007.35,0002.48
2023-06-10 08:44:00,SystemResetWarning,0829.4,5.00,000.00,030.2,028.5,000.0,038.7,031.7,20.3,0000.0,0003.43,0007.34,0002.49
2023-06-10 08:45:00,SystemResetWarning,0829.4,5.00,000.00,030.2,028.5,000.0,038.7,031.6,20.1,0000.0,0003.46,0007.66,0002.49
2023-06-10 08:46:00,SystemResetWarning,0829.4,5.00,000.00,030.2,028.5,000.0,038.7,031.6,21.6,0000.0,0003.47,0007.69,0002.54
2023-06-10 08:47:00,SystemResetWarning,0829.4,5.00,000.00,030.2,028.5,000.0,038.7,031.6,22.0,0000.0,0003.48,0007.71,0002.59
2023-06-10 08:48:00,SystemResetWarning,0829.4,4.99,000.00,030.2,028.5,000.0,038.7,031.6,22.8,0000.0,0003.51,0007.71,0002.65
2023-06-10 08:49:00,SystemResetWarning,0829.3,4.99,000.00,030.2,028.5,000.0,038.7,031.6,24.2,0000.0,0003.56,0007.77,0002.76
2023-06-10 08:50:00,SystemResetWarning,0829.4,5.00,000.00,030.2,028.5,000.0,038.7,031.6,24.5,0000.0,0003.63,0008.00,0002.87
2023-06-10 08:51:00,SystemResetWarning,0829.3,5.00,000.00,030.2,028.5,000.0,038.7,031.6,24.6,0000.0,0003.70,0008.18,0002.97
2023-06-10 08:52:00,SystemResetWarning,0829.3,5.01,000.00,030.2,028.4,000.0,038.7,031.6,24.6,0000.0,0003.82,0009.19,0003.10
2023-06-10 08:53:00,SystemResetWarning,0829.4,5.00,000.00,030.2,028.5,000.0,038.7,031.6,24.8,0000.0,0003.89,0009.67,0003.17
2023-06-10 08:54:00,SystemResetWarning,0829.3,4.99,000.00,030.2,028.5,000.0,038.7,031.6,25.4,0000.0,0003.93,0010.26,0003.24
2023-06-10 08:55:00,SystemResetWarning,0829.4,4.99,000.00,030.2,028.5,000.0,038.7,031.6,25.7,0000.0,0004.02,0010.62,0003.32
2023-06-10 08:56:00,SystemResetWarning,0829.4,4.99,000.00,030.2,028.5,000.0,038.7,031.6,25.6,0000.0,0004.19,0010.92,0003.41
2023-06-10 08:57:00,SystemResetWarning,0829.4,5.00,000.00,030.2,028.5,000.0,038.7,031.6,25.3,0000.0,0004.30,0011.27,0003.48
2023-06-10 08:58:00,SystemResetWarning,0829.4,5.00,000.00,030.1,028.4,000.0,038.7,031.6,25.2,0000.0,0004.43,0011.59,0003.54
2023-06-10 08:59:00,SystemResetWarning,0829.4,5.01,000.00,030.1,028.4,000.0,038.7,031.6,24.8,0000.0,0004.49,0011.68,0003.58
